Pullman, WA

11:52 AM PDT on July 27, 2017 (GMT -0700)
Pullman-Moscow Regional

Weather History for KPUW - November, 2012

Change the Weather History Date:

Sunday, November 25, 2012

  Actual Average Record
Temperature  
Mean Temperature 32 °F 34 °F  
Max Temperature 37 °F 39 °F 55 °F (1995)
Min Temperature 27 °F 29 °F -5 °F (1993)
Degree Days  
Heating Degree Days 33 31  
Month to date heating degree days 591 678  
Since 1 July heating degree days 1396 1584  
Cooling Degree Days 0 0  
Month to date cooling degree days 0 0  
Year to date cooling degree days 248 213  
Moisture  
Dew Point 30 °F    
Average Humidity 88    
Maximum Humidity 100    
Minimum Humidity 75    
Precipitation  
Precipitation 0.00 in 0.07 in 0.97 in (1990)
Month to date precipitation 2.54 1.91  
Year to date precipitation 20.85 14.94  
Sea Level Pressure  
Sea Level Pressure 30.25 in    
Wind  
Wind Speed 4 mph (West)    
Max Wind Speed 10 mph    
Max Gust Speed 14 mph    
Visibility 8 miles    
Events Fog    
T = Trace of Precipitation, MM = Missing Value Source: NWS Daily Summary

Daily Weather History Graph

Daily Weather History Graph

Search for Another Location

Airport or City:

Trip Planner

Search our weather history database for the weather conditions in past years. The results will help you decide how hot, cold, wet, or windy it might be!

Date:

Astronomy

Nov. 25, 2012 Rise Set
Actual Time 7:05 AM PST 4:05 PM PST
Civil Twilight 6:31 AM PST 4:39 PM PST
Nautical Twilight 5:54 AM PST 5:16 PM PST
Astronomical Twilight 5:17 AM PST 5:53 PM PST
Moon 2:30 PM PST (11/25) 4:17 AM PST (11/25)
Length of Visible Light 10h 07m
Length of Day
8h 59m
Waxing Gibbous, 93% of the Moon is Illuminated
Nov 25
Waxing Gibbous
Nov 28
Full
Dec 6
Last Quarter
Dec 13
New
Dec 19
First Quarter

Hourly Weather History & Observations

Time (PST) Temp. Windchill Dew Point Humidity Pressure Visibility Wind Dir Wind Speed Gust Speed Precip Events Conditions
12:53 AM 34.0 °F 31.0 °F 32.0 °F 92% 30.16 in 9.0 mi West 3.5 mph - N/A   Overcast
1:14 AM 33.8 °F 29.6 °F 30.2 °F 87% 30.11 in 9.0 mi West 4.6 mph - N/A   Scattered Clouds
1:53 AM 34.0 °F 28.0 °F 32.0 °F 92% 30.17 in 9.0 mi West 6.9 mph - N/A   Mostly Cloudy
2:40 AM 33.8 °F 27.7 °F 32.0 °F 93% 30.13 in 9.0 mi West 6.9 mph - N/A   Overcast
2:53 AM 34.0 °F 31.0 °F 32.0 °F 92% 30.18 in 9.0 mi WSW 3.5 mph - N/A   Overcast
3:41 AM 33.8 °F 28.6 °F 32.0 °F 93% 30.13 in 1.5 mi SW 5.8 mph - N/A   Overcast
3:49 AM 32.0 °F 27.5 °F 32.0 °F 100% 30.13 in 0.5 mi SW 4.6 mph - N/A Fog Fog
3:53 AM 32.0 °F 27.5 °F 32.0 °F 100% 30.19 in 0.5 mi SW 4.6 mph - N/A Fog Fog
4:53 AM 32.0 °F 27.5 °F 32.0 °F 100% 30.21 in 1.5 mi SW 4.6 mph - N/A   Overcast
4:58 AM 32.0 °F 28.7 °F 30.2 °F 93% 30.15 in 3.0 mi WSW 3.5 mph - N/A   Overcast
5:10 AM 32.0 °F - 32.0 °F 100% 30.15 in 1.8 mi Calm Calm - N/A   Overcast
5:34 AM 32.0 °F - 30.2 °F 93% 30.15 in 3.0 mi Calm Calm - N/A   Overcast
5:53 AM 32.0 °F - 32.0 °F 100% 30.22 in 4.0 mi Calm Calm - N/A   Overcast
6:53 AM 32.0 °F 25.6 °F 30.9 °F 96% 30.25 in 6.0 mi West 6.9 mph - N/A   Overcast
7:53 AM 32.0 °F 26.4 °F 30.9 °F 96% 30.26 in 2.5 mi WSW 5.8 mph - N/A   Overcast
8:07 AM 30.2 °F 25.4 °F 30.2 °F 100% 30.20 in 3.0 mi WSW 4.6 mph - N/A   Overcast
8:44 AM 32.0 °F 27.5 °F 30.2 °F 93% 30.21 in 7.0 mi WSW 4.6 mph - N/A   Overcast
8:53 AM 32.0 °F 27.5 °F 30.0 °F 92% 30.28 in 8.0 mi West 4.6 mph - N/A   Overcast
9:06 AM 32.0 °F 27.5 °F 30.2 °F 93% 30.21 in 9.0 mi WSW 4.6 mph - N/A   Overcast
9:40 AM 32.0 °F 26.4 °F 30.2 °F 93% 30.22 in 9.0 mi WNW 5.8 mph - N/A   Mostly Cloudy
9:48 AM 32.0 °F 28.7 °F 30.2 °F 93% 30.22 in 8.0 mi Variable 3.5 mph - N/A   Mostly Cloudy
9:53 AM 33.1 °F 28.7 °F 30.0 °F 89% 30.29 in 9.0 mi WSW 4.6 mph - N/A   Mostly Cloudy
10:53 AM 34.0 °F 29.8 °F 30.0 °F 85% 30.30 in 10.0 mi WNW 4.6 mph - N/A   Mostly Cloudy
11:17 AM 33.8 °F 29.6 °F 30.2 °F 87% 30.23 in 10.0 mi NNW 4.6 mph - N/A   Mostly Cloudy
11:44 AM 33.8 °F 27.7 °F 30.2 °F 87% 30.23 in 10.0 mi WNW 6.9 mph - N/A   Scattered Clouds
11:53 AM 35.1 °F 31.0 °F 30.0 °F 82% 30.30 in 10.0 mi West 4.6 mph - N/A   Scattered Clouds
11:58 AM 35.6 °F 31.7 °F 30.2 °F 81% 30.24 in 10.0 mi Variable 4.6 mph - N/A   Mostly Cloudy
12:26 PM 35.6 °F 31.7 °F 30.2 °F 81% 30.24 in 10.0 mi WNW 4.6 mph - N/A   Partly Cloudy
12:53 PM 36.0 °F 30.3 °F 30.0 °F 79% 30.30 in 10.0 mi WSW 6.9 mph - N/A   Partly Cloudy
1:15 PM 35.6 °F 29.9 °F 30.2 °F 81% 30.24 in 10.0 mi West 6.9 mph - N/A   Mostly Cloudy
1:24 PM 35.6 °F 30.7 °F 30.2 °F 81% 30.25 in 10.0 mi WNW 5.8 mph - N/A   Scattered Clouds
1:53 PM 36.0 °F 31.1 °F 28.9 °F 76% 30.31 in 10.0 mi WSW 5.8 mph - N/A   Partly Cloudy
2:53 PM 35.1 °F 32.2 °F 28.0 °F 76% 30.32 in 10.0 mi West 3.5 mph - N/A   Clear
3:53 PM 34.0 °F 31.0 °F 28.9 °F 82% 30.34 in 10.0 mi NNW 3.5 mph - N/A   Clear
4:53 PM 30.9 °F - 28.0 °F 89% 30.35 in 10.0 mi Calm Calm - N/A   Clear
5:53 PM 30.0 °F - 28.0 °F 92% 30.36 in 10.0 mi Calm Calm - N/A   Clear
6:53 PM 28.9 °F - 26.1 °F 89% 30.37 in 10.0 mi Calm Calm - N/A   Clear
7:53 PM 28.9 °F - 26.1 °F 89% 30.37 in 10.0 mi Calm Calm - N/A   Clear
8:53 PM 28.9 °F - 26.1 °F 89% 30.38 in 10.0 mi Calm Calm - N/A   Clear
9:53 PM 28.9 °F 23.9 °F 26.1 °F 89% 30.38 in 10.0 mi NE 4.6 mph - N/A   Clear
10:53 PM 28.9 °F 22.8 °F 26.1 °F 89% 30.38 in 10.0 mi East 5.8 mph - N/A   Clear
11:53 PM 28.9 °F 21.9 °F 26.1 °F 89% 30.37 in 10.0 mi East 6.9 mph - N/A   Clear